User: anonymous
Location: Deer Path Park
(40.5570°N, 74.8450°W)
Time: 09:57:31
(UTC-04:00)
Language:

Iridium 49 - Orbit

View from above orbital plane
View from above orbital plane
View from above satellite
View from above satellite

Ground track
Ground track

The orbit data is extracted from the following two-line orbital elements,

1 25108U 97082E   14112.45758279  .00000598  00000-0  20643-3 0  7345
2 25108 086.4002 016.8516 0002210 102.2192 019.6467 14.34221424855296
Epoch (UTC): 22 April 2014 10:58:55
Eccentricity: 0.0002210
inclination: 86.4002°
perigee height: 776 km
apogee height: 779 km
right ascension of ascending node: 16.8516°
argument of perigee: 102.2192°
revolutions per day: 14.34221424
mean anomaly at epoch: 19.6467°
orbit number at epoch: 85529

The dashed part of the orbit path shows where the satellite is in the earth's shadow,  

DLR